Flag for Tajikistan Weather past 2 weeks in Dushanbe, Tajikistan

Now
64 °F

Clear.


Feels Like: 64 °F
Forecast: 62 / 89 °F
Wind: 1 mph from Northeast

Location: Dushanbe Airport

Current Time: Sep 18, 2014 at 3:28:58 AM

Latest Report: Sep 18, 2014 at 3:00 AM


Visibility: N/A

Pressure: 29.80 "Hg

Humidity: 40%

Dew point: 39 °F

Location of DushanbeLocation

Historic Weather in Dushanbe — Graph

°F

Dushanbe temperature yesterday

Maximum temperature yesterday: 97 °F (at 2:30 PM)
Minimum temperature yesterday: 61 °F (at 5:00 AM)
Average temperature yesterday: 78 °F

Past Weeks' High & Low Weather Summary

 TemperatureHumidityPressure
High97 °F (Sep 17, 2:30 PM)63% (Sep 8, 7:00 AM)30.01 "Hg (Sep 8, 7:00 AM)
Low57 °F (Sep 7, 6:30 AM)7% (Sep 17, 2:30 PM)29.65 "Hg (Sep 5, 3:00 PM)
Average74 °F31%29.87 "Hg
* Reported Sep 3 2:00 AM — Sep 18 2:30 AM, Dushanbe, Weather by CustomWeather, © 2014

Note: Actual official high and low records may vary slightly from our data, if they occured in-between our weather recording intervals... More about our weather records

Advertising

Dushanbe weather history for September 3, 2014

 ConditionsComfort  
Time TempWeatherWind HumidityBarometerVisibility
2:00 AM
Sep 3
68 °FPassing clouds.1 mph43%29.89 "HgN/A
2:30 AM66 °FPassing clouds.No wind49%29.89 "Hg6 mi
3:00 AM68 °FClear.1 mph40%29.89 "HgN/A
3:30 AM66 °FClear.1 mph43%29.89 "HgN/A
4:00 AM66 °FClear.1 mph43%29.89 "HgN/A
4:30 AM64 °FClear.1 mph43%29.89 "HgN/A
5:00 AM66 °FClear.3 mph40%29.89 "HgN/A
5:30 AM64 °FClear.1 mph46%29.89 "HgN/A
6:00 AM64 °FSunny.No wind46%29.89 "HgN/A
6:30 AM64 °FSunny.1 mph43%29.92 "Hg6 mi
7:00 AM66 °FSunny.1 mph43%29.92 "Hg5 mi
7:30 AM70 °FSunny.1 mph35%29.92 "Hg5 mi
8:00 AM73 °FSunny.1 mph31%29.92 "Hg5 mi
8:30 AM77 °FSunny.1 mph30%29.92 "Hg5 mi
9:00 AM77 °FSunny.1 mph28%29.92 "HgN/A
9:30 AM81 °FSunny.1 mph23%29.92 "HgN/A
10:00 AM82 °FSunny.1 mph25%29.92 "Hg5 mi
10:30 AM86 °FSunny.3 mph20%29.92 "HgN/A
11:00 AM88 °FSunny.3 mph17%29.89 "HgN/A
11:30 AM88 °FSunny.3 mph15%29.89 "HgN/A
12:00 PM90 °FPassing clouds.3 mph13%29.89 "HgN/A
12:30 PM90 °FPassing clouds.6 mph15%29.89 "HgN/A
1:00 PM90 °FPassing clouds.3 mph13%29.89 "HgN/A
1:30 PM91 °FPassing clouds.3 mph14%29.86 "HgN/A
2:00 PM91 °FPassing clouds.3 mph14%29.86 "HgN/A
2:30 PM91 °FPassing clouds.3 mph14%29.83 "HgN/A
3:00 PM91 °FPassing clouds.3 mph15%29.83 "HgN/A
3:30 PM91 °FPassing clouds.6 mph13%29.83 "HgN/A
4:00 PM90 °FPassing clouds.6 mph17%29.80 "HgN/A
4:30 PM90 °FPassing clouds.6 mph16%29.80 "HgN/A
5:00 PM90 °FPassing clouds.8 mph17%29.80 "HgN/A
5:30 PM86 °FPassing clouds.8 mph20%29.80 "HgN/A
6:00 PM84 °FPassing clouds.8 mph25%29.80 "HgN/A
6:30 PM81 °FPassing clouds.8 mph30%29.83 "HgN/A
7:00 PM81 °FPassing clouds.6 mph28%29.83 "HgN/A
7:30 PM79 °FPassing clouds.3 mph30%29.83 "Hg5 mi
8:00 PM79 °FPassing clouds.No wind28%29.83 "Hg6 mi
8:30 PM77 °FPassing clouds.No wind28%29.83 "Hg5 mi
9:00 PM75 °FPassing clouds.1 mph34%29.86 "Hg5 mi
9:30 PM73 °FPassing clouds.3 mph36%29.86 "Hg4 mi
10:00 PM72 °FPassing clouds.3 mph41%29.86 "Hg4 mi
10:30 PM73 °FPassing clouds.3 mph36%29.86 "Hg6 mi
11:00 PM70 °FPassing clouds.3 mph40%29.86 "Hg4 mi
11:30 PM66 °FPassing clouds.6 mph52%29.86 "Hg4 mi
Weather by CustomWeather, © 2014

See weather overviewHow to use our weather pages